#timestamp,LO_Frequency,Hit,StdDev 
1573714815.0,286047001.1,N
1573714815.9,286047001.1,N
1573714835.8,286046998.5,N
1573714855.6,286046999.2,N
1573714875.4,286046999.8,N
1573714895.3,286047002.2,N
1573714915.1,286047001.7,N
1573714935.9,286047002.3,N
1573714955.7,286047000.0,N
1573714975.5,286047002.1,N
1573714995.4,286047001.5,N
1573715015.2,286047002.8,N
1573715035.0,286046998.3,N
1573715036.0,286046998.3,N
1573715055.8,286046998.6,N
1573715075.6,286047000.3,N
1573715095.5,286047002.4,N
1573715115.3,286047002.7,N
1573715135.1,286047000.0,N
1573715155.9,286047000.6,N
1573715175.7,286047000.8,N
1573715195.6,286047000.4,N
1573715215.4,286047000.5,N
1573715235.2,286047000.6,N
1573715255.1,286047001.7,N
1573715256.0,286047001.7,N
1573715275.8,286047001.6,N
1573715295.7,286047001.9,N
1573715315.5,286047004.4,Y
1573715335.3,286047001.4,P
1573715355.2,286047002.3,P
1573715375.0,286047001.4,N
1573715375.9,286047001.4,N
1573715395.8,286047003.4,Y
1573715415.6,286047002.7,P
1573715435.4,286047000.4,N
1573715455.3,286047002.1,N
1573715475.1,286047002.1,N
1573715495.8,286047000.3,N
1573715515.7,286047005.5,Y
1573715535.5,286047001.8,P
1573715555.4,286047002.2,P
1573715575.2,286047000.1,N
1573715595.0,286047002.1,N
1573715595.9,286047002.1,N
1573715615.8,286047000.4,N
1573715635.6,286047002.7,Y
1573715655.4,286047000.5,P
1573715675.3,286047000.7,N
1573715695.1,286047001.0,N
1573715715.9,286047002.1,Y
1573715735.7,286047001.5,P
1573715755.5,286047004.4,P
1573715775.4,286047003.8,N
1573715795.2,286047001.3,N
1573715815.0,286047001.3,N
1573715816.0,286047001.3,N
1573715835.8,286047001.5,N
1573715855.6,286047000.5,N
1573715875.5,286047000.6,N
1573715895.3,286046998.8,N
1573715915.1,286046998.5,N
1573715935.9,286046998.6,N
1573715955.7,286047000.8,N
1573715975.5,286047000.8,N
1573715995.4,286047000.5,N
1573716015.2,286047000.4,N
1573716035.1,286047000.9,N
1573716036.0,286047000.9,N
1573716055.8,286046998.5,N
1573716075.6,286046998.3,N
1573716095.5,286046999.1,N
1573716115.3,286046996.8,N
1573716135.1,286046998.8,N
1573716155.9,286046996.5,N
1573716175.7,286046999.2,N
1573716195.6,286046999.4,N
1573716215.4,286047001.2,N
1573716235.2,286047002.4,N
1573716255.1,286047001.9,N
1573716256.0,286047001.9,N
1573716275.8,286047002.2,N
1573716295.6,286047002.5,N
1573716315.5,286047001.6,N
1573716335.3,286047001.7,N
1573716355.2,286047004.2,N
1573716375.9,286047004.0,N
1573716395.7,286047004.3,N
1573716415.6,286047001.7,N
1573716435.4,286047002.2,N
1573716455.2,286047003.8,N
1573716475.1,286047001.6,N
1573716476.0,286047001.6,N
1573716495.8,286047002.5,N
1573716515.7,286047001.3,N
1573716535.5,286047004.4,N
1573716555.3,286046999.7,N
1573716575.2,286047002.1,N
1573716595.0,286047001.5,N
1573716595.9,286047001.5,N
1573716615.7,286047004.3,N
1573716635.6,286047001.6,N
1573716655.4,286047002.0,N
1573716675.3,286047002.6,N
1573716695.1,286046999.9,N
1573716696.0,286046999.9,N
1573716715.8,286047000.1,N
1573716735.7,286047002.0,N
1573716755.5,286047002.8,N
1573716775.3,286047002.5,N
1573716795.2,286047002.5,N
1573716815.0,286047002.5,N
1573716815.9,286047002.5,N
1573716835.8,286047002.5,N
1573716855.6,286047004.3,Y
1573716875.4,286047001.7,P
1573716895.3,286047001.7,P
1573716915.1,286047004.4,P
1573716935.9,286047001.3,N
1573716955.7,286046999.7,N
1573716975.5,286046999.0,N
1573716995.4,286046998.9,N
1573717015.2,286046998.8,N
1573717035.0,286047001.0,N
1573717036.0,286047001.0,N
1573717055.8,286046998.2,N
1573717075.6,286046999.6,N
1573717095.5,286046999.4,N
1573717115.3,286046999.0,N
1573717135.1,286046998.7,N
1573717155.9,286046998.9,N
1573717175.7,286046998.3,N
1573717195.5,286046999.1,N
1573717215.4,286046997.5,N
1573717235.2,286046994.5,Y
1573717255.1,286046994.0,P
1573717256.0,286046994.0,N
1573717275.8,286046994.3,N
1573717295.6,286046992.6,N
1573717315.5,286046992.0,Y
1573717335.3,286046998.0,P
1573717355.2,286046996.5,N
1573717375.9,286046999.7,N
1573717395.7,286047001.3,N
1573717415.6,286047003.9,N
1573717435.4,286047002.1,N
1573717455.2,286047000.3,N
1573717475.1,286047000.8,N
1573717476.0,286047000.8,N
1573717495.8,286046998.8,N
1573717515.7,286046999.3,N
1573717535.5,286046996.8,N
1573717555.3,286046995.1,N
1573717575.2,286046995.2,N
1573717595.0,286046993.5,N
1573717595.9,286046993.5,N
1573717615.7,286046993.8,N
1573717635.6,286046992.1,N
1573717655.4,286046992.6,N
1573717675.3,286046992.9,N
1573717695.1,286046990.2,N
1573717696.0,286046990.2,N
1573717715.8,286046990.6,N
1573717735.7,286046992.1,N
1573717755.5,286046993.8,N
1573717775.3,286046994.0,N
1573717795.2,286046994.5,N
1573717815.0,286046994.2,N
1573717815.9,286046994.2,N
1573717835.8,286046991.8,N
1573717855.6,286046991.9,N
1573717875.4,286046992.7,N
1573717895.3,286046990.3,N
1573717915.1,286046991.8,N
1573717935.8,286046994.6,N
1573717955.7,286046994.1,N
1573717975.5,286046993.4,N
1573717995.4,286046996.4,N
1573718015.2,286046993.7,N
1573718035.0,286046994.8,N
1573718035.9,286046994.8,N
1573718055.8,286046992.1,Y
1573718075.6,286046999.3,P
1573718095.4,286046995.2,N
1573718115.3,286046995.2,N
1573718135.1,286046995.9,N
1573718155.9,286046995.9,N
1573718175.7,286046995.8,N
1573718195.5,286046993.9,Y
1573718215.4,286046997.7,P
1573718235.2,286046997.5,N
1573718255.0,286046999.1,N
1573718256.0,286046999.1,N
1573718275.8,286047000.3,N
1573718295.6,286047002.7,N
1573718315.5,286047000.6,N
1573718335.3,286047000.2,N
1573718355.1,286047000.7,N
1573718375.9,286046998.3,N
1573718395.7,286047001.1,N
